This is the latest recevied weather packets stored in our database for station/object KC9DRE. If no packets are shown the sender has not sent any weather packets the latest 10 day(s).
| Time | Temp. | Humidity | Pressure | Rain* | Wind** | Luminosity | Snow |
|---|---|---|---|---|---|---|---|
| 1778257896 | 21.67° C | 40% | 1014.5 hPa | 0 mm | - | 852 W/m² | - |
| 1778257591 | 21.67° C | 42% | 1014.7 hPa | 0 mm | - | 848 W/m² | - |
| 1778257289 | 21.67° C | 41% | 1014.7 hPa | 0 mm | - | 840 W/m² | - |
| 1778256986 | 21.67° C | 39% | 1014.9 hPa | 0 mm | - | 833 W/m² | - |
| 1778256683 | 21.11° C | 45% | 1014.8 hPa | 0 mm | - | 824 W/m² | - |
| 1778256381 | 21.11° C | 43% | 1014.8 hPa | 0 mm | - | 819 W/m² | - |
| 1778256079 | 21.11° C | 39% | 1015 hPa | 0 mm | - | 813 W/m² | - |
| 1778255776 | 21.67° C | 45% | 1015 hPa | 0 mm | - | 805 W/m² | - |
| 1778255472 | 21.67° C | 42% | 1015 hPa | 0 mm | - | 794 W/m² | - |
| 1778255169 | 21.11° C | 44% | 1015 hPa | 0 mm | - | 758 W/m² | - |
| 1778254866 | 20.56° C | 40% | 1015.1 hPa | 0 mm | - | 766 W/m² | - |
| 1778254563 | 20.56° C | 43% | 1015.3 hPa | 0 mm | - | 766 W/m² | - |
| 1778254259 | 20.56° C | 43% | 1015.2 hPa | 0 mm | - | 746 W/m² | - |
| 1778253957 | 20.56° C | 41% | 1015.3 hPa | 0 mm | - | 745 W/m² | - |
| 1778253652 | 20.56° C | 41% | 1015.4 hPa | 0 mm | - | 732 W/m² | - |
| 1778253349 | 20° C | 43% | 1015.4 hPa | 0 mm | - | 720 W/m² | - |
| 1778253046 | 20° C | 41% | 1015.3 hPa | 0 mm | - | 708 W/m² | - |
| 1778252743 | 20° C | 40% | 1015.5 hPa | 0 mm | - | 695 W/m² | - |
| 1778252438 | 20° C | 43% | 1015.7 hPa | 0 mm | - | 681 W/m² | - |
| 1778252136 | 19.44° C | 43% | 1015.6 hPa | 0 mm | - | 667 W/m² | - |
| 1778251832 | 19.44° C | 41% | 1015.6 hPa | 0 mm | - | 653 W/m² | - |
| 1778251530 | 19.44° C | 42% | 1015.9 hPa | 0 mm | - | 641 W/m² | - |
| 1778251227 | 18.89° C | 45% | 1015.9 hPa | 0 mm | - | 584 W/m² | - |
| 1778250925 | 19.44° C | 43% | 1015.9 hPa | 0 mm | - | 608 W/m² | - |
| 1778250621 | 19.44° C | 48% | 1015.9 hPa | 0 mm | - | 586 W/m² | - |
* Rain latest hour (hover to see other rain measurements)
** Current wind speed in m/s (hover to see current wind gust speed)